Home   Weather   Kelowna   Past weeks

Flag for Canada Past Weather in Kelowna, British Columbia, Canada — Yesterday and Last 2 Weeks

Now
43 °F

Overcast.


Feels Like: 43 °F
Forecast: 37 / 59 °F
Wind: No wind

Location: Kelowna Airport

Current Time: Apr 25, 2017 at 7:47:03 am

Latest Report: Apr 25, 2017 at 7:00 am


Visibility: 9 mi

Pressure: 29.89 "Hg

Humidity: 87%

Dew Point: 39 °F

Location of KelownaLocation

Past Weather in Kelowna — Graph

°F

Kelowna Temperature Yesterday

Maximum temperature yesterday: 59 °F (at 5:00 pm)
Minimum temperature yesterday: 41 °F (at 6:00 am)
Average temperature yesterday: 50 °F

High & Low Weather Summary for the Past Weeks

 TemperatureHumidityPressure
High61 °F (Apr 23, 4:00 pm)100% (Apr 11, 12:00 am)30.40 "Hg (Apr 11, 12:00 am)
Low28 °F (Apr 11, 5:00 am)31% (Apr 15, 5:00 pm)29.64 "Hg (Apr 13, 6:34 am)
Average46 °F73%29.96 "Hg
* Reported Apr 10 6:00 am — Apr 25 6:00 am, Kelowna, Weather by CustomWeather, © 2017

Note: Actual official high and low records may vary slightly from our data, if they occured in-between our weather recording intervals... More about our weather records

Advertising

Kelowna Weather History for the Previous 24 Hours

Scroll right to see more
 ConditionsComfort  
Time TempWeatherWind HumidityBarometerVisibility
6:00 am
Tue, Apr 25
43 °FMostly cloudy.3 mph81%29.87 "Hg9 mi
5:00 am43 °FOvercast.3 mph87%29.86 "Hg9 mi
4:00 am41 °FOvercast.No wind87%29.85 "Hg9 mi
3:00 am41 °FOvercast.2 mph87%29.84 "Hg9 mi
2:00 am37 °FMostly cloudy.2 mph93%29.83 "Hg9 mi
1:00 am37 °FClear.2 mph87%29.82 "Hg9 mi
12:00 am39 °FClear.No wind87%29.80 "Hg9 mi
11:00 pm
Mon, Apr 24
43 °FClear.5 mph81%29.77 "Hg9 mi
10:00 pm48 °FClear.No wind76%29.76 "Hg9 mi
9:00 pm50 °FOvercast.2 mph76%29.74 "Hg9 mi
8:00 pm54 °FPartly sunny.2 mph58%29.71 "Hg9 mi
7:38 pm54 °FLight rain. Cloudy.7 mph63%29.70 "Hg9 mi
7:00 pm55 °FCloudy.8 mph55%29.69 "Hg9 mi
6:00 pm57 °FOvercast.9 mph55%29.69 "Hg9 mi
5:00 pm59 °FPartly sunny.10 mph48%29.66 "Hg9 mi
4:00 pm57 °FScattered clouds.8 mph55%29.66 "Hg9 mi
3:00 pm57 °FOvercast.6 mph55%29.66 "Hg9 mi
2:00 pm57 °FSunny.5 mph55%29.66 "Hg9 mi
1:00 pm54 °FPartly sunny.6 mph63%29.67 "Hg9 mi
12:00 pm54 °FPassing clouds.3 mph63%29.67 "Hg9 mi
11:00 am50 °FScattered clouds.6 mph71%29.69 "Hg9 mi
10:31 am48 °FMore clouds than sun.6 mph76%29.69 "Hg9 mi
10:17 am48 °FMore clouds than sun.5 mph82%29.69 "Hg9 mi
10:00 am48 °FMostly cloudy.8 mph82%29.69 "Hg9 mi
9:46 am48 °FMostly cloudy.7 mph82%29.70 "Hg9 mi
9:00 am46 °FMostly cloudy.5 mph82%29.70 "Hg9 mi
8:00 am45 °FMostly cloudy.2 mph81%29.70 "Hg9 mi
7:54 am45 °FMostly cloudy.5 mph81%29.70 "Hg9 mi
7:35 am45 °FLight rain. More clouds than sun.3 mph81%29.70 "Hg9 mi
7:00 am45 °FCloudy.3 mph81%29.69 "Hg9 mi
Weather by CustomWeather, © 2017

See weather overviewHow to use our weather pages